Change the Weather History Date:

Wednesday, July 10, 2013

  Actual Average Record
Temperature  
Mean Temperature 65 °F 71 °F  
Max Temperature 77 °F 83 °F 108 °F (1966)
Min Temperature 53 °F 60 °F 43 °F (1945)
Degree Days  
Heating Degree Days 0 0  
Month to date heating degree days 0 8  
Since 1 June heating degree days 88 86  
Since 1 July heating degree days 0 8  
Cooling Degree Days 0 7  
Month to date cooling degree days 70 63  
Year to date cooling degree days 181 181  
Since 1 June cooling degree days 159 159  
Growing Degree Days 16 (Base 50)    
Moisture  
Dew Point 54 °F    
Average Humidity 70    
Maximum Humidity 100    
Minimum Humidity 40    
Precipitation  
Precipitation 0.00 in 0.10 in 1.78 in (1977)
Month to date precipitation 0.76 1.00  
Year to date precipitation 14.26 11.43  
Sea Level Pressure  
Sea Level Pressure 30.09 in    
Wind  
Wind Speed 4 mph (NNW)    
Max Wind Speed 10 mph    
Max Gust Speed 14 mph    
Visibility 10 miles    
Events      
T = Trace of Precipitation, MM = Missing Value Source: NWS Daily Summary

Daily Weather History Graph

Daily Weather History Graph

Search for Another Location

Airport or City:

Trip Planner

Search our weather history database for the weather conditions in past years. The results will help you decide how hot, cold, wet, or windy it might be!

Date:

Astronomy

Jul. 10, 2013 Rise Set
Actual Time 5:52 AM CDT 9:15 PM CDT
Civil Twilight 5:16 AM CDT 9:51 PM CDT
Nautical Twilight 4:28 AM CDT 10:38 PM CDT
Astronomical Twilight 3:28 AM CDT 11:38 PM CDT
Moon 8:22 AM CDT (7/10) 10:15 PM CDT (7/10)
Length of Visible Light 16h 35m
Length of Day
15h 22m
Waxing Crescent, 5% of the Moon is Illuminated
Jul 10
Waxing Crescent
Jul 15
First Quarter
Jul 22
Full
Jul 29
Last Quarter
Aug 6
New

Hourly Weather History & Observations

Time (CDT) Temp. Dew Point Humidity Pressure Visibility Wind Dir Wind Speed Gust Speed Precip Events Conditions
12:53 AM 62.1 °F 61.0 °F 96% 30.06 in 10.0 mi North 8.1 mph - N/A   Clear
1:53 AM 61.0 °F 59.0 °F 93% 30.07 in 10.0 mi North 8.1 mph - N/A   Clear
2:53 AM 59.0 °F 57.0 °F 93% 30.08 in 10.0 mi North 8.1 mph - N/A   Clear
3:53 AM 57.9 °F 55.0 °F 90% 30.09 in 10.0 mi North 6.9 mph - N/A   Clear
4:53 AM 55.0 °F 54.0 °F 96% 30.10 in 10.0 mi North 6.9 mph - N/A   Clear
5:53 AM 54.0 °F 52.0 °F 93% 30.12 in 10.0 mi North 4.6 mph - N/A   Clear
6:53 AM 55.9 °F 55.0 °F 97% 30.13 in 9.0 mi Calm Calm - N/A   Clear
7:53 AM 60.1 °F 55.0 °F 83% 30.13 in 10.0 mi North 6.9 mph - N/A   Clear
8:53 AM 63.0 °F 55.9 °F 78% 30.13 in 10.0 mi North 3.5 mph - N/A   Clear
9:53 AM 66.9 °F 53.1 °F 61% 30.13 in 10.0 mi NNE 5.8 mph - N/A   Clear
10:53 AM 70.0 °F 54.0 °F 57% 30.13 in 9.0 mi NNE 6.9 mph - N/A   Clear
11:53 AM 71.1 °F 52.0 °F 51% 30.13 in 10.0 mi Calm Calm - N/A   Clear
12:53 PM 72.0 °F 53.1 °F 51% 30.12 in 10.0 mi WNW 5.8 mph - N/A   Clear
1:53 PM 73.0 °F 54.0 °F 51% 30.10 in 10.0 mi Variable 3.5 mph - N/A   Clear
2:53 PM 75.0 °F 54.0 °F 48% 30.09 in 10.0 mi North 3.5 mph - N/A   Clear
3:53 PM 75.9 °F 52.0 °F 43% 30.08 in 10.0 mi SW 4.6 mph - N/A   Clear
4:53 PM 75.9 °F 50.0 °F 40% 30.06 in 10.0 mi SW 3.5 mph - N/A   Clear
5:53 PM 77.0 °F 51.1 °F 40% 30.04 in 10.0 mi SSW 4.6 mph - N/A   Clear
6:53 PM 75.9 °F 50.0 °F 40% 30.04 in 10.0 mi WSW 3.5 mph - N/A   Clear
7:53 PM 73.9 °F 55.0 °F 52% 30.03 in 10.0 mi SSW 3.5 mph - N/A   Clear
8:53 PM 72.0 °F 51.1 °F 48% 30.03 in 10.0 mi SSE 3.5 mph - N/A   Clear
9:53 PM 70.0 °F 53.1 °F 55% 30.04 in 10.0 mi Calm Calm - N/A   Clear
10:53 PM 64.9 °F 54.0 °F 68% 30.05 in 10.0 mi Calm Calm - N/A   Clear
11:53 PM 64.9 °F 55.9 °F 73% 30.06 in 10.0 mi Calm Calm - N/A   Clear